Location: Burland Observatory
(39.4088°N, 105.4217°W)
Time: 19:51:41
(UTC-07:00)

Vanguard 3 - Pass Details

Date: 08 December 2019
Orbit: 508 x 3263 km, 33.3° (Epoch: 19 January)

Event Time Altitude Azimuth Distance (km) Brightness Sun altitude
Rises 12:07:23 0° 273° (W) 5,254 11.3 27.8°
Reaches altitude 10° 12:10:21 10° 270° (W) 4,563 11.1 27.7°
Maximum altitude 12:24:03 63° 194° (SSW) 3,097 11.2 27.4°
Drops below altitude 10° 12:43:26 10° 120° (ESE) 6,192 11.9 26.8°
Sets 12:48:16 0° 117° (ESE) 7,153 12.1 26.5°
